Oakland, MD

9:58 AM EDT on March 23, 2017 (GMT -0400)
Oakland

Weather History for K2G4 - May, 2013

Change the Weather History Date:

Friday, May 3, 2013

  Actual Average (KMGW) Record (KMGW)
Temperature  
Mean Temperature 51 °F -  
Max Temperature 60 °F 66 °F 88 °F (1965)
Min Temperature 42 °F 46 °F 33 °F (1952)
Degree Days  
Heating Degree Days 14    
Growing Degree Days 1 (Base 50)    
Moisture  
Dew Point 38 °F    
Average Humidity 62    
Maximum Humidity 87    
Minimum Humidity 42    
Precipitation  
Precipitation 0.00 in - - ()
Sea Level Pressure  
Sea Level Pressure 30.27 in    
Wind  
Wind Speed 14 mph (ESE)    
Max Wind Speed 25 mph    
Max Gust Speed 34 mph    
Visibility 10 miles    
Events      
Averages and records for this station are not official NWS values.
T = Trace of Precipitation, MM = Missing Value Source: NWS Daily Summary

Daily Weather History Graph

Daily Weather History Graph

Search for Another Location

Airport or City:

Trip Planner

Search our weather history database for the weather conditions in past years. The results will help you decide how hot, cold, wet, or windy it might be!

Date:

Astronomy

May. 03, 2013 Rise Set
Actual Time 6:15 AM EDT 8:13 PM EDT
Civil Twilight 5:46 AM EDT 8:42 PM EDT
Nautical Twilight 5:10 AM EDT 9:18 PM EDT
Astronomical Twilight 4:32 AM EDT 9:57 PM EDT
Moon 2:37 AM EDT (5/3) 2:07 PM EDT (5/3)
Length of Visible Light 14h 56m
Length of Day
13h 57m
Last Quarter, 37% of the Moon is Illuminated
May 3
Last Quarter
May 9
New
May 18
First Quarter
May 25
Full
May 31
Last Quarter

Hourly Weather History & Observations

Time (EDT) Temp. Windchill Dew Point Humidity Pressure Visibility Wind Dir Wind Speed Gust Speed Precip Events Conditions
12:05 AM 48.2 °F - 37.4 °F 66% 30.29 in 10.0 mi SE 11.5 mph 23.0 mph N/A   Clear
12:25 AM 46.4 °F 41.1 °F 37.4 °F 71% 30.29 in 10.0 mi SE 11.5 mph 17.3 mph N/A   Clear
12:45 AM 46.4 °F 41.9 °F 37.4 °F 71% 30.29 in 10.0 mi SE 9.2 mph - N/A   Clear
1:05 AM 46.4 °F 41.5 °F 39.2 °F 76% 30.29 in 10.0 mi SE 10.4 mph 16.1 mph N/A   Clear
1:25 AM 46.4 °F 42.4 °F 39.2 °F 76% 30.28 in 10.0 mi SE 8.1 mph - N/A   Clear
1:45 AM 46.4 °F 41.9 °F 39.2 °F 76% 30.28 in 10.0 mi SE 9.2 mph - N/A   Clear
2:05 AM 44.6 °F 38.8 °F 39.2 °F 81% 30.27 in 10.0 mi SE 11.5 mph - N/A   Clear
2:25 AM 44.6 °F 40.2 °F 39.2 °F 81% 30.27 in 10.0 mi SE 8.1 mph - N/A   Clear
2:45 AM 44.6 °F 39.7 °F 39.2 °F 81% 30.27 in 10.0 mi SE 9.2 mph - N/A   Clear
3:05 AM 42.8 °F 38.0 °F 39.2 °F 87% 30.26 in 10.0 mi SE 8.1 mph - N/A   Clear
3:25 AM 44.6 °F 39.7 °F 39.2 °F 81% 30.26 in 10.0 mi ESE 9.2 mph - N/A   Clear
3:45 AM 44.6 °F 39.2 °F 39.2 °F 81% 30.26 in 10.0 mi SE 10.4 mph - N/A   Clear
4:05 AM 44.6 °F 39.7 °F 39.2 °F 81% 30.26 in 10.0 mi SE 9.2 mph - N/A   Clear
4:25 AM 42.8 °F 38.0 °F 39.2 °F 87% 30.26 in 10.0 mi SE 8.1 mph - N/A   Clear
5:05 AM 42.8 °F 37.0 °F 39.2 °F 87% 30.25 in 10.0 mi SE 10.4 mph - N/A   Clear
5:25 AM 42.8 °F 36.6 °F 37.4 °F 81% 30.25 in 10.0 mi SE 11.5 mph - N/A   Clear
5:45 AM 42.8 °F 36.6 °F 37.4 °F 81% 30.25 in 10.0 mi SE 11.5 mph - N/A   Clear
6:05 AM 42.8 °F 35.8 °F 37.4 °F 81% 30.25 in 10.0 mi SE 13.8 mph - N/A   Clear
6:25 AM 44.6 °F 37.4 °F 37.4 °F 76% 30.26 in 10.0 mi SE 16.1 mph - N/A   Clear
6:45 AM 44.6 °F 36.6 °F 39.2 °F 81% 30.26 in 10.0 mi ESE 19.6 mph 24.2 mph N/A   Clear
7:05 AM 44.6 °F 36.9 °F 41.0 °F 87% 30.27 in 10.0 mi ESE 18.4 mph 24.2 mph N/A   Clear
7:25 AM 44.6 °F 36.4 °F 37.4 °F 76% 30.28 in 10.0 mi ESE 20.7 mph 26.5 mph N/A   Clear
7:45 AM 46.4 °F 38.7 °F 37.4 °F 71% 30.28 in 10.0 mi ESE 20.7 mph 25.3 mph N/A   Clear
8:05 AM 46.4 °F 39.0 °F 37.4 °F 71% 30.28 in 10.0 mi ESE 19.6 mph 27.6 mph N/A   Clear
8:25 AM 48.2 °F - 37.4 °F 66% 30.28 in 10.0 mi ESE 19.6 mph 31.1 mph N/A   Clear
8:45 AM 50.0 °F - 35.6 °F 58% 30.28 in 10.0 mi ESE 20.7 mph 28.8 mph N/A   Clear
9:05 AM 50.0 °F - 33.8 °F 54% 30.29 in 10.0 mi ESE 23.0 mph 34.5 mph N/A   Clear
9:25 AM 50.0 °F - 33.8 °F 54% 30.29 in 10.0 mi ESE 25.3 mph 32.2 mph N/A   Clear
9:45 AM 50.0 °F - 33.8 °F 54% 30.29 in 10.0 mi ESE 23.0 mph 31.1 mph N/A   Clear
10:05 AM 50.0 °F - 32.0 °F 50% 30.29 in 10.0 mi ESE 21.9 mph 34.5 mph N/A   Clear
10:25 AM 51.8 °F - 32.0 °F 47% 30.30 in 10.0 mi ESE 21.9 mph 29.9 mph N/A   Clear
10:45 AM 53.6 °F - 32.0 °F 44% 30.30 in 10.0 mi ESE 18.4 mph 31.1 mph N/A   Clear
11:05 AM 53.6 °F - 32.0 °F 44% 30.31 in 10.0 mi ESE 21.9 mph 31.1 mph N/A   Clear
11:25 AM 53.6 °F - 33.8 °F 47% 30.31 in 10.0 mi ESE 19.6 mph 31.1 mph N/A   Clear
11:45 AM 53.6 °F - 35.6 °F 51% 30.31 in 10.0 mi ESE 16.1 mph 26.5 mph N/A   Clear
12:05 PM 55.4 °F - 39.2 °F 54% 30.31 in 10.0 mi SE 18.4 mph 21.9 mph N/A   Clear
12:25 PM 53.6 °F - 39.2 °F 58% 30.30 in 10.0 mi ESE 19.6 mph 27.6 mph N/A   Clear
12:45 PM 55.4 °F - 39.2 °F 54% 30.30 in 10.0 mi ESE 17.3 mph 24.2 mph N/A   Clear
1:05 PM 55.4 °F - 41.0 °F 58% 30.30 in 10.0 mi ESE 18.4 mph 25.3 mph N/A   Clear
1:25 PM 59.0 °F - 41.0 °F 51% 30.29 in 10.0 mi SE 19.6 mph 26.5 mph N/A   Clear
1:45 PM 59.0 °F - 39.2 °F 48% 30.29 in 10.0 mi ESE 19.6 mph 26.5 mph N/A   Clear
2:05 PM 59.0 °F - 39.2 °F 48% 30.28 in 10.0 mi ESE 19.6 mph 27.6 mph N/A   Clear
2:25 PM 59.0 °F - 37.4 °F 45% 30.28 in 10.0 mi ESE 17.3 mph 24.2 mph N/A   Clear
2:45 PM 60.8 °F - 37.4 °F 42% 30.28 in 10.0 mi SE 12.7 mph 25.3 mph N/A   Clear
3:05 PM 60.8 °F - 37.4 °F 42% 30.27 in 10.0 mi ESE 16.1 mph 24.2 mph N/A   Clear
3:25 PM 60.8 °F - 37.4 °F 42% 30.26 in 10.0 mi SE 19.6 mph 26.5 mph N/A   Clear
3:45 PM 60.8 °F - 39.2 °F 45% 30.26 in 10.0 mi ESE 15.0 mph 23.0 mph N/A   Clear
4:05 PM 60.8 °F - 41.0 °F 48% 30.25 in 10.0 mi ESE 15.0 mph 21.9 mph N/A   Clear
4:25 PM 60.8 °F - 41.0 °F 48% 30.25 in 10.0 mi ESE 11.5 mph 23.0 mph N/A   Clear
4:45 PM 60.8 °F - 41.0 °F 48% 30.25 in 10.0 mi East 15.0 mph 24.2 mph N/A   Clear
5:25 PM 59.0 °F - 41.0 °F 51% 30.25 in 10.0 mi East 16.1 mph 26.5 mph N/A   Clear
5:45 PM 59.0 °F - 41.0 °F 51% 30.25 in 10.0 mi ESE 16.1 mph 23.0 mph N/A   Clear
6:05 PM 59.0 °F - 41.0 °F 51% 30.25 in 10.0 mi ESE 15.0 mph 24.2 mph N/A   Clear
6:25 PM 57.2 °F - 41.0 °F 55% 30.25 in 10.0 mi ESE 19.6 mph 25.3 mph N/A   Clear
6:45 PM 55.4 °F - 39.2 °F 54% 30.25 in 10.0 mi ESE 19.6 mph 25.3 mph N/A   Clear
7:05 PM 55.4 °F - 39.2 °F 54% 30.25 in 10.0 mi ESE 19.6 mph 24.2 mph N/A   Clear
7:25 PM 55.4 °F - 39.2 °F 54% 30.25 in 10.0 mi SE 13.8 mph 23.0 mph N/A   Clear
7:45 PM 53.6 °F - 39.2 °F 58% 30.25 in 10.0 mi ESE 17.3 mph 28.8 mph N/A   Clear
8:05 PM 53.6 °F - 37.4 °F 54% 30.25 in 10.0 mi ESE 17.3 mph 27.6 mph N/A   Clear
8:25 PM 51.8 °F - 37.4 °F 58% 30.25 in 10.0 mi ESE 16.1 mph 21.9 mph N/A   Clear
8:45 PM 51.8 °F - 37.4 °F 58% 30.25 in 10.0 mi ESE 15.0 mph 21.9 mph N/A   Clear
9:05 PM 51.8 °F - 37.4 °F 58% 30.25 in 10.0 mi ESE 18.4 mph 24.2 mph N/A   Clear
9:25 PM 50.0 °F - 37.4 °F 62% 30.25 in 10.0 mi ESE 15.0 mph 21.9 mph N/A   Clear
9:45 PM 50.0 °F - 37.4 °F 62% 30.26 in 10.0 mi ESE 15.0 mph 20.7 mph N/A   Clear
10:05 PM 50.0 °F - 37.4 °F 62% 30.25 in 10.0 mi ESE 17.3 mph 25.3 mph N/A   Clear
10:25 PM 48.2 °F - 37.4 °F 66% 30.25 in 10.0 mi ESE 17.3 mph 23.0 mph N/A   Clear
10:45 PM 46.4 °F 39.5 °F 37.4 °F 71% 30.25 in 10.0 mi SE 17.3 mph 25.3 mph N/A   Clear
11:05 PM 46.4 °F 39.2 °F 37.4 °F 71% 30.24 in 10.0 mi SE 18.4 mph 26.5 mph N/A   Clear
11:25 PM 44.6 °F 36.4 °F 35.6 °F 71% 30.24 in 10.0 mi SE 20.7 mph 25.3 mph N/A   Clear
11:45 PM 44.6 °F 36.9 °F 32.0 °F 61% 30.24 in 10.0 mi ESE 18.4 mph 26.5 mph N/A   Clear